Hourly Data Report for September 14, 2017

All times are specified in Local Standard Time (LST). Add 1 hour to adjust for Daylight Saving Time where and when it is observed.

ARVIAT A
NUNAVUT

61°05'38.000" N
94°04'18.000" W
10.40 m
2300427
71174
YEK

Download Data

Hourly Data (September 2017)
Hourly Data Report for September 14, 2017
Temp Definition
°C
Dew Point Temp Definition
°C
Rel Hum Definition
%
Wind Dir Definition
10's deg

Wind Spd Definition
km/h
Visibility Definition
km
Stn Press Definition
kPa
Hmdx Definition


Wind Chill Definition


Weather Definition


TIME
00:00 Legend Double Dagger 3.4 1.0 84 12 5 16.1 101.60     LegendNANA
01:00 Legend Double Dagger 2.3 1.6 95 33 8 16.1 101.61     LegendNANA
02:00 Legend Double Dagger 1.8 1.4 97 32 8 16.1 101.63     LegendNANA
03:00 Legend Double Dagger 1.4 0.8 96 31 9 16.1 101.63     LegendNANA
04:00 Legend Double Dagger 1.4 0.5 94 31 11 16.1 101.65     LegendNANA
05:00 Legend Double Dagger 1.4 0.8 96 32 8 16.1 101.66     LegendNANA
06:00 Legend Double Dagger 1.2 0.9 98 32 11 16.1 101.69     LegendNANA
07:00 Legend Double Dagger 1.3 1.0 98 33 9 16.1 101.71     LegendNANA
08:00 Legend Double Dagger 1.2 1.1 99 29 9 16.1 101.75     LegendNANA
09:00 Legend Double Dagger 3.1 2.8 98 32 9 16.1 101.76     LegendNANA
10:00 Legend Double Dagger 4.6 2.7 87 33 9 16.1 101.75     LegendNANA
11:00 Legend Double Dagger 5.7 1.8 76 32 5 16.1 101.76     LegendNANA
12:00 Legend Double Dagger 6.4 0.8 67 LegendMM 8 16.1 101.75     LegendNANA
13:00 Legend Double Dagger 6.8 0.9 66 28 5 16.1 101.75     LegendNANA
14:00 Legend Double Dagger 6.9 0.4 63 29 8 16.1 101.75     LegendNANA
15:00 Legend Double Dagger 7.2 0.7 63 31 9 16.1 101.75     LegendNANA
16:00 Legend Double Dagger 7.5 1.2 64 29 8 16.1 101.74     LegendNANA
17:00 Legend Double Dagger 7.6 1.4 65 31 8 16.1 101.73     LegendNANA
18:00 Legend Double Dagger 7.8 2.0 66 26 11 16.1 101.74     LegendNANA
19:00 Legend Double Dagger 6.6 2.8 77 25 9 16.1 101.76     LegendNANA
20:00 Legend Double Dagger 5.5 2.9 83 24 11 16.1 101.78     LegendNANA
21:00 Legend Double Dagger 3.9 2.7 92 23 13 16.1 101.80     LegendNANA
22:00 Legend Double Dagger 3.2 2.3 94 25 13 16.1 101.79     LegendNANA
23:00 Legend Double Dagger 2.5 1.6 94 26 13 16.1 101.79     LegendNANA

Notes on Data Quality.

Legend

  • E = Estimated
  • M = Missing
  • NA = Not Available
  • ‡ = Partner data that is not subject to review by the National Climate Archives
Date modified: